Location: Bédeille
(43.0872°N, 1.1041°E)
Time: 12:10:57
(UTC+00:00)

IKONOS-2 - Pass Details

Date: 03 February 2023
Orbit: 594 x 605 km, 98.2° (Epoch: 19 March)

Event Time Altitude Azimuth Distance (km) Brightness Sun altitude
Rises 17:35:39 0° 15° (NNE) 2,877 7.7 -5.2°
Reaches altitude 10° 17:37:51 10° 17° (NNE) 1,967 6.8 -5.6°
Maximum altitude 17:42:07 74° 102° (ESE) 635 4.5 -6.3°
Drops below altitude 10° 17:46:21 10° 188° (S) 1,946 7.5 -7.1°
Sets 17:48:30 0° 190° (S) 2,843 8.3 -7.4°
